Flag for U.S.A. Weather past 2 weeks in Greenville, South Carolina, U.S.A.

Now
58 °F

Sunny.


Feels Like: 58 °F
Forecast: 34 / 57 °F
Wind: No wind

Location: Greenville Downtown Airport

Current Time: Dec 26, 2014 at 5:58:36 PM

Latest Report: Dec 26, 2014 at 4:53 PM


Visibility: 10 mi

Pressure: 30.27 "Hg

Humidity: 36%

Dew point: 31 °F

Location of GreenvilleLocation

Historic Weather in Greenville — Graph

°F

Greenville temperature yesterday

Maximum temperature yesterday: 55 °F (at 2:53 PM)
Minimum temperature yesterday: 37 °F (at 10:53 PM)
Average temperature yesterday: 47 °F

Past Weeks' High & Low Weather Summary

 TemperatureHumidityPressure
High69 °F (Dec 14, 2:53 PM)97% (Dec 23, 11:53 PM)30.36 "Hg (Dec 23, 11:53 PM)
Low31 °F (Dec 12, 6:53 AM)13% (Dec 13, 1:53 PM)29.67 "Hg (Dec 24, 4:53 PM)
Average47 °F61%30.09 "Hg
* Reported Dec 11 4:53 PM — Dec 26 4:53 PM, Greenville, Weather by CustomWeather, © 2014

Note: Actual official high and low records may vary slightly from our data, if they occured in-between our weather recording intervals... More about our weather records

Advertising

Greenville weather history for previous 24 hours

 ConditionsComfort  
Time TempWeatherWind HumidityBarometerVisibility
4:53 PM
Dec 26
58 °FSunny.No wind36%30.27 "Hg10 mi
3:53 PM59 °FSunny.5 mph35%30.27 "Hg10 mi
2:53 PM58 °FSunny.3 mph36%30.28 "Hg10 mi
1:53 PM58 °FSunny.8 mph38%30.29 "Hg10 mi
12:53 PM56 °FSunny.No wind42%30.31 "Hg10 mi
11:53 AM54 °FSunny.3 mph45%30.35 "Hg10 mi
10:53 AM52 °FSunny.3 mph50%30.36 "Hg10 mi
9:53 AM49 °FSunny.No wind57%30.36 "Hg10 mi
8:53 AM38 °FSunny.No wind83%30.36 "Hg10 mi
7:53 AM35 °FSunny.No wind82%30.34 "Hg10 mi
6:53 AM34 °FClear.No wind85%30.31 "Hg10 mi
5:53 AM33 °FClear.No wind85%30.29 "Hg10 mi
4:53 AM35 °FClear.3 mph82%30.28 "Hg10 mi
3:53 AM40 °FClear.3 mph70%30.27 "Hg10 mi
2:53 AM38 °FClear.No wind79%30.26 "Hg10 mi
1:53 AM36 °FClear.No wind82%30.27 "Hg10 mi
12:53 AM38 °FClear.No wind83%30.25 "Hg10 mi
11:53 PM
Dec 25
38 °FClear.No wind79%30.24 "Hg10 mi
10:53 PM37 °FClear.No wind82%30.27 "Hg10 mi
9:53 PM44 °FClear.No wind63%30.26 "Hg10 mi
8:53 PM44 °FClear.No wind65%30.24 "Hg10 mi
7:53 PM44 °FClear.No wind68%30.22 "Hg10 mi
6:53 PM48 °FClear.No wind56%30.22 "Hg10 mi
5:53 PM51 °FClear.3 mph48%30.21 "Hg10 mi
Weather by CustomWeather, © 2014

See weather overviewHow to use our weather pages